Wind_Speed
37 38 40 43 45 47 49 51 53 55 56 58 60 62 64 66 68 70 72 74 75 77 79 80 82 83 85 87 88 90 91 93 95 97 98 100 102 103 104 105 106 106 106 106 106 106 105 104 103 103 102 101 101 100 100 100 99 99 99 99 98 99 100 100 97 97 99 95 93 95 94 93 93 93 92 92 91 90 90 90 89 89 88 88 88 88 88 87
32 33 35 37 39 40 42 44 46 48 50 51 53 55 57 59 61 63 65 67 69 71 72 74 76 78 80 81 83 85 86 88 89 91 92 94 95 97 98 100 101 102 102 102 103 102 102 101 101 100 100 99 99 99 99 99 99 98 98 97 98 99 99 96 94 96 97 94 94 93 93 93 92 91 91 90 90 89 89 89 88 87 87 87 87 86 86 85
27 29 30 32 33 35 37 38 40 41 43 45 46 48 50 52 54 56 58 60 62 63 65 67 68 70 72 74 76 78 80 81 83 85 86 88 89 91 93 94 95 96 97 97 98 98 98 98 98 98 97 97 98 98 97 98 97 97 96 96 98 98 94 93 94 95 94 92 92 91 91 91 90 90 90 89 87 88 88 87 86 85 85 86 85 84 83 83
25 26 27 28 30 31 32 33 35 36 37 39 40 42 44 46 47 49 51 52 54 55 57 58 60 62 63 65 67 69 71 73 75 77 79 81 82 84 86 88 89 90 91 92 93 93 94 94 94 94 95 95 95 95 95 95 95 94 94 95 95 92 91 92 92 91 91 90 89 89 89 88 87 87 87 86 85 87 87 83 82 83 83 83 83 82 81 80
24 25 25 26 27 28 28 29 30 32 33 34 36 37 39 40 41 43 44 46 47 48 49 50 52 53 55 57 58 60 62 63 65 68 70 72 74 76 78 80 82 83 85 86 87 88 89 89 90 90 90 91 91 92 91 91 91 91 92 91 89 89 89 89 87 87 88 87 86 86 85 84 83 84 84 83 84 84 81 79 81 81 80 80 80 79 78 77
24 24 25 25 26 26 26 27 27 28 30 31 32 33 34 35 37 38 39 40 41 42 43 44 45 46 47 49 50 52 53 55 57 59 61 63 65 68 70 72 73 75 77 78 80 81 82 83 84 84 85 86 86 86 86 87 87 86 87 85 85 85 84 82 83 83 83 82 82 81 80 79 80 80 79 80 81 78 77 78 79 77 76 77 77 75 74 73
26 26 26 26 26 26 26 26 26 27 28 29 29 30 31 32 33 34 35 35 36 37 37 38 39 40 41 42 43 45 46 48 50 52 54 56 58 60 62 64 66 67 69 71 72 74 75 76 77 78 79 80 80 80 81 81 81 81 81 80 79 79 77 77 78 77 77 77 76 75 76 76 76 75 75 76 75 73 74 75 74 73 73 73 73 71 70 69
27 27 27 27 28 28 28 28 27 28 28 28 28 29 29 30 30 30 31 31 32 32 32 33 34 34 35 36 37 38 40 42 43 45 47 50 52 54 55 57 59 60 62 63 65 66 67 69 70 71 72 73 73 74 74 75 75 75 74 73 73 73 72 72 72 71 72 71 71 71 71 71 71 70 72 72 70 70 71 71 70 70 69 69 69 68 66 65
29 29 29 29 30 30 30 29 29 29 29 29 29 29 29 29 29 29 28 28 28 28 28 28 29 29 30 30 31 32 34 36 37 39 41 43 45 47 49 51 52 54 55 56 58 59 60 61 62 64 64 65 66 66 67 68 67 67 66 66 67 66 66 66 66 66 67 66 67 68 67 67 68 68 69 68 66 68 68 68 68 66 66 66 65 64 63 62
31 31 32 32 32 32 32 31 31 31 31 31 30 30 29 29 29 28 27 26 25 25 24 24 25 25 25 25 26 27 28 30 31 33 35 37 39 41 43 44 46 47 49 50 52 53 54 55 55 57 57 58 58 58 60 59 59 59 59 60 60 60 60 61 61 61 62 63 64 64 64 65 65 65 66 63 63 66 65 65 64 63 63 63 62 61 60 59
33 33 34 34 34 34 34 33 33 33 33 33 32 31 30 30 29 28 27 25 24 23 22 22 21 21 21 21 22 22 23 25 26 27 28 30 32 34 36 38 39 41 43 44 45 47 48 48 49 50 50 51 51 52 53 52 52 53 53 54 55 55 55 56 57 58 59 59 61 61 61 62 62 64 62 58 61 64 62 62 61 61 61 59 59 58 57 56
34 34 35 35 35 35 35 34 34 34 34 34 34 33 32 31 29 28 27 25 24 23 22 21 20 19 19 19 19 19 19 20 21 23 24 25 26 28 30 32 33 35 37 38 39 41 42 43 44 45 45 46 46 46 47 48 48 48 49 50 50 51 52 53 53 54 56 55 57 58 58 59 60 61 57 55 60 61 59 59 59 58 57 56 55 54 54 52
34 35 35 35 35 35 35 35 35 35 35 35 35 35 33 32 31 29 28 26 25 24 23 22 21 20 19 18 18 17 17 17 18 19 21 22 23 25 26 27 29 30 32 33 34 36 37 39 40 40 42 41 41 42 44 44 44 45 46 46 47 48 50 49 49 51 52 52 54 55 54 56 57 57 52 53 58 58 56 57 55 55 54 53 52 51 50 48
35 35 35 35 35 35 35 35 35 35 36 36 36 36 35 34 33 31 30 28 27 26 25 24 23 22 20 19 18 17 16 16 17 18 19 19 20 22 23 24 26 27 29 30 31 32 34 35 36 37 38 37 38 40 40 40 41 42 43 44 44 46 47 45 46 49 49 49 52 52 52 55 55 51 50 52 55 54 53 53 52 52 50 49 48 48 46 45
35 35 35 36 36 36 36 36 35 36 36 37 37 37 37 36 34 33 31 30 29 28 27 26 26 25 23 22 20 18 17 17 18 18 19 19 19 20 22 23 24 26 27 28 29 30 31 33 34 34 35 35 36 37 38 38 39 39 41 42 42 44 44 41 45 48 47 48 51 51 51 54 51 46 48 51 51 51 50 49 48 46 45 45 44 45 43 42
33 34 34 35 35 36 36 36 36 36 36 37 37 37 37 36 35 34 33 32 31 30 29 28 28 27 26 26 24 22 21 21 21 20 20 21 21 22 23 23 24 26 27 28 29 30 31 31 32 32 32 32 32 34 35 35 37 38 39 41 40 43 44 40 44 48 46 47 50 50 50 53 48 40 46 50 47 47 46 44 44 43 43 43 42 43 42 41
29 30 31 31 32 33 34 35 36 36 37 37 37 38 37 37 36 36 35 34 33 32 31 31 30 29 28 28 27 26 25 25 24 23 23 23 23 24 24 25 26 27 28 29 30 31 31 32 32 31 30 31 32 32 33 34 36 36 37 39 39 42 44 41 43 46 45 46 49 49 48 50 46 38 44 49 44 43 43 41 41 42 43 43 42 41 41 41
26 27 28 28 29 30 31 32 34 35 36 37 37 37 37 37 37 36 36 35 35 34 33 33 33 31 31 31 30 29 29 29 28 27 26 26 26 26 26 27 27 28 28 29 30 30 31 32 32 33 34 35 36 37 38 39 38 37 39 42 41 42 45 44 40 42 47 47 46 47 46 48 44 37 41 47 43 40 41 41 41 43 43 42 42 43 42 41
25 26 26 26 27 27 28 29 30 32 34 35 36 37 37 37 37 36 37 36 36 36 35 35 35 34 34 33 33 32 32 31 31 31 30 30 29 29 29 29 29 30 30 30 31 31 32 33 34 35 36 36 38 41 42 42 41 42 43 45 45 43 46 45 38 40 49 48 45 45 46 46 43 38 40 43 42 40 42 44 43 43 43 43 44 45 43 40
24 24 25 25 26 26 26 26 27 28 30 32 34 35 36 37 37 37 37 37 36 36 36 36 36 36 36 35 35 35 34 34 34 34 34 34 34 33 33 33 33 33 33 32 33 34 35 36 37 37 36 37 40 42 41 41 42 43 44 45 46 44 46 45 37 41 50 48 45 45 44 44 43 40 39 40 42 42 45 46 43 43 44 46 46 45 43 41
23 24 24 24 25 25 26 26 27 27 28 29 31 33 35 36 37 38 38 37 37 37 37 37 37 37 37 37 37 37 37 36 36 36 36 37 37 37 37 37 37 37 37 37 37 38 38 39 40 38 38 39 42 42 41 42 44 44 45 46 47 46 47 44 39 45 49 47 47 45 43 44 45 43 39 39 42 44 48 47 44 44 45 45 46 45 44 43
24 24 24 24 25 25 26 27 27 27 28 28 30 31 33 35 37 38 38 39 39 38 38 38 39 38 38 38 38 39 39 38 38 38 38 39 39 39 39 40 40 40 40 41 41 41 42 42 41 40 42 42 42 44 43 44 46 47 48 47 49 49 47 46 44 46 49 49 49 46 45 47 48 45 42 41 42 45 49 47 44 45 45 45 46 46 45 44
25 25 25 25 25 25 26 27 28 28 29 29 30 31 32 33 35 37 38 39 39 39 39 40 40 40 40 39 40 40 40 40 40 40 40 41 40 40 41 42 42 42 43 44 43 44 45 44 42 42 44 44 44 46 46 47 48 49 49 49 51 49 48 50 46 46 50 50 50 48 48 50 51 48 45 45 45 46 49 49 47 46 46 47 47 46 45 44
27 27 27 27 27 27 27 27 28 28 29 30 31 31 32 33 34 36 37 38 39 39 40 41 41 42 41 41 41 42 42 42 42 42 42 42 42 42 43 43 44 44 45 45 45 47 47 44 45 45 46 46 46 47 48 49 50 50 50 51 52 50 50 52 47 48 52 50 50 50 49 52 51 48 48 47 48 48 49 49 49 48 48 48 48 47 47 45
29 29 29 29 29 29 29 28 28 29 29 30 31 32 33 34 35 36 36 37 39 40 40 41 42 42 42 42 43 44 44 44 44 44 44 44 44 45 45 45 46 46 46 46 48 50 47 46 48 48 47 48 48 49 49 50 51 52 51 52 54 51 52 54 50 51 54 51 51 50 51 53 50 49 52 49 49 50 50 50 50 50 50 50 50 49 48 47
31 31 31 31 31 31 31 31 31 31 31 31 31 32 33 34 35 36 36 38 39 40 40 41 42 42 43 43 44 45 45 46 46 46 46 47 47 47 47 47 48 48 47 48 51 51 48 48 50 49 49 50 50 51 51 51 54 54 52 53 55 53 53 54 53 54 55 53 53 52 53 53 50 53 54 50 51 52 51 52 52 52 52 51 51 51 50 49
34 33 33 33 33 34 34 34 34 34 34 34 34 34 34 35 35 36 37 38 40 40 40 41 41 42 43 44 45 45 46 47 47 47 48 49 49 49 49 49 50 50 49 51 53 52 51 51 52 52 52 52 52 53 52 53 56 55 53 55 56 55 55 56 55 56 56 56 55 55 56 55 54 56 54 52 54 54 52 54 53 53 53 53 53 52 52 51
37 36 36 36 36 36 36 37 37 37 37 37 37 37 37 38 38 38 39 40 40 40 41 41 41 42 43 44 45 46 46 47 47 48 49 49 50 51 51 51 52 52 52 54 54 53 54 53 53 54 54 55 55 55 55 56 57 56 56 56 57 57 57 58 58 59 58 58 58 58 58 58 59 60 56 55 57 56 55 55 55 55 55 55 55 54 54 54
39 39 39 39 39 39 40 40 40 40 40 40 41 41 41 41 41 42 43 43 43 42 43 42 43 43 44 45 46 46 47 47 47 48 49 50 50 51 52 52 53 54 54 56 55 55 56 56 55 56 56 57 57 58 58 59 58 59 58 58 58 58 59 59 60 61 61 59 60 61 59 60 63 63 60 58 59 59 58 58 56 56 57 57 57 57 56 56
42 42 42 42 42 42 42 42 43 43 43 43 43 44 43 44 45 46 47 46 46 46 46 46 46 46 46 47 48 48 48 48 49 49 50 50 51 51 52 53 54 55 55 56 57 57 57 58 58 58 58 59 59 59 60 60 60 61 60 60 60 60 61 62 62 63 63 61 63 64 61 62 64 65 64 61 59 61 62 60 58 58 59 59 59 59 59 58
43 43 43 43 44 44 44 45 45 45 45 45 46 46 46 46 47 48 49 49 49 49 49 49 49 49 49 50 51 52 51 51 52 52 52 52 52 53 53 54 55 55 56 57 57 57 58 59 60 60 60 61 61 61 62 62 62 62 62 62 62 63 64 64 65 66 64 63 65 65 64 65 66 66 67 63 60 62 64 63 61 60 61 62 61 61 61 60
44 44 45 45 46 46 46 47 47 47 48 48 48 48 48 49 49 50 51 51 51 52 52 52 52 52 52 53 54 55 55 55 56 55 55 55 55 56 56 57 57 57 58 58 58 58 59 59 60 61 61 62 62 63 63 64 65 64 64 64 64 66 67 66 67 68 67 67 68 68 68 68 66 67 69 66 63 64 66 66 64 63 63 64 64 63 63 63
45 45 46 46 47 47 47 47 48 48 48 49 49 49 49 50 50 51 53 53 53 54 54 54 55 55 55 55 56 58 58 58 59 59 58 58 59 59 61 61 61 60 61 61 60 60 61 61 62 63 63 62 63 63 63 64 66 65 64 65 67 68 69 68 69 70 70 71 71 70 71 68 66 68 70 68 66 65 66 68 67 66 66 66 66 66 66 66
45 45 46 46 47 47 48 48 48 49 49 50 50 50 50 51 51 52 53 53 54 55 55 55 56 56 56 57 58 60 60 60 61 61 61 61 62 63 65 65 64 63 64 64 64 63 64 65 66 66 65 64 65 65 64 64 66 66 66 67 68 69 71 71 71 72 72 74 73 71 70 68 67 70 70 69 69 68 68 69 70 69 69 68 68 69 69 69
46 46 47 47 48 48 48 49 49 50 50 50 51 51 52 52 52 53 53 54 55 55 56 56 56 57 58 58 59 61 61 61 62 63 62 62 64 65 67 68 67 66 66 66 67 68 67 69 71 70 69 69 68 67 66 66 67 68 69 70 69 71 74 73 72 72 73 74 72 70 70 68 68 70 69 69 71 71 71 71 71 72 71 71 71 71 71 71
46 46 46 46 46 46 46 46 47 47 48 48 48 50 50 51 51 52 53 53 54 55 56 56 56 57 58 58 60 62 62 62 62 63 64 63 65 67 68 69 69 68 68 68 69 71 70 72 74 74 73 73 73 71 69 69 70 72 72 72 72 74 75 74 74 74 75 75 72 70 70 68 68 69 69 70 71 71 73 73 73 73 72 72 72 72 73 73
42 42 42 42 42 42 42 42 43 43 44 44 45 46 47 47 48 49 50 50 51 52 53 54 54 56 57 57 59 60 61 63 62 62 65 65 66 69 69 69 69 69 69 70 71 73 73 74 76 76 75 77 76 74 73 73 73 75 75 75 77 77 76 76 77 77 77 77 74 72 71 69 68 68 69 72 73 72 74 74 74 74 73 72 72 72 73 73
40 40 40 40 41 41 40 40 40 40 40 41 41 42 43 43 44 45 46 46 47 48 49 50 50 52 53 54 56 57 58 61 61 60 63 65 66 68 69 69 70 71 71 71 72 74 74 74 76 77 77 78 79 77 76 77 77 78 79 80 81 80 79 80 82 81 80 79 77 75 74 72 70 68 70 75 76 74 75 75 75 75 74 73 73 73 73 73
39 38 38 38 38 38 37 36 35 35 36 36 36 37 38 39 39 40 42 42 43 44 45 46 47 48 50 51 52 54 54 56 58 58 61 63 63 65 67 68 69 69 70 71 73 76 77 76 76 77 78 79 79 78 78 79 80 81 82 83 82 83 83 84 86 86 84 83 81 79 78 75 72 72 73 76 79 78 77 76 77 77 75 74 74 73 73 73
36 34 33 33 33 32 32 32 31 32 33 33 33 34 35 36 37 38 40 40 41 42 43 44 46 46 48 49 50 52 52 53 55 57 58 60 61 62 64 65 66 67 68 69 72 75 76 76 74 75 78 79 79 79 80 80 82 83 84 84 84 85 86 87 88 87 87 88 86 84 82 77 75 77 79 79 80 81 80 79 79 79 78 77 76 76 75 75
31 30 30 30 30 30 30 30 31 32 33 33 33 34 34 36 36 38 40 41 41 42 43 44 45 46 47 49 50 51 52 53 54 56 57 58 60 61 61 62 65 67 67 68 71 73 74 74 73 73 76 77 77 79 80 80 82 84 85 85 86 87 89 89 88 87 90 91 89 87 84 79 77 80 83 83 82 83 84 84 83 82 81 80 80 80 79 78
28 28 29 30 30 31 31 31 32 32 32 33 34 34 36 36 38 39 40 42 43 43 44 45 46 48 48 49 51 53 53 54 55 57 58 59 61 61 60 62 64 67 68 68 70 72 72 73 73 72 73 75 75 77 78 79 81 84 85 85 87 89 90 91 90 89 91 92 89 89 88 82 80 83 85 86 86 85 86 87 87 86 84 84 84 84 83 82
29 30 31 31 31 31 31 31 32 32 33 35 35 36 38 38 40 41 42 43 45 45 46 47 48 49 50 50 53 54 54 55 56 58 60 61 63 62 61 63 64 66 69 69 70 71 72 73 74 73 72 73 74 75 76 78 80 82 84 85 87 88 88 89 90 90 91 91 89 92 91 86 83 85 86 88 89 87 87 88 89 88 87 88 88 87 87 86
31 31 31 32 32 32 32 32 33 34 35 37 38 39 40 41 42 43 43 45 46 47 48 49 49 50 51 51 53 55 56 56 56 58 60 61 63 63 62 63 65 66 69 69 69 71 71 73 74 73 72 71 72 75 76 78 80 82 83 84 84 84 85 86 87 89 91 89 88 92 92 87 85 87 87 89 90 89 88 88 89 89 90 91 92 90 90 90
31 31 31 32 33 33 34 35 35 36 37 39 41 42 43 44 45 46 46 46 47 48 49 49 50 51 52 52 53 55 56 57 57 58 59 62 63 63 63 63 65 67 68 67 69 70 71 72 72 72 72 70 71 74 77 80 82 83 83 83 83 83 83 85 87 89 89 86 87 91 91 87 85 86 87 88 89 90 90 89 90 91 92 93 94 92 92 93
31 31 32 33 35 36 37 38 39 39 40 41 43 45 46 46 46 48 49 48 48 49 49 50 50 51 52 53 54 55 57 57 57 57 58 61 62 63 63 62 63 67 67 66 67 69 69 70 71 71 70 69 69 72 76 80 82 83 83 82 82 82 83 85 88 89 88 87 88 90 91 88 85 83 84 84 86 87 88 89 89 90 91 93 95 95 94 95
33 34 35 36 37 38 39 41 42 42 43 44 46 47 49 49 48 48 49 50 49 50 50 50 51 52 53 54 55 56 57 57 57 57 57 59 61 63 63 62 62 64 66 66 66 67 67 67 68 70 69 67 68 70 74 78 81 82 81 80 80 81 83 86 88 88 88 90 91 89 90 91 86 82 81 82 83 84 84 86 87 87 88 89 92 94 95 96
37 37 38 39 40 40 41 42 44 45 46 47 49 50 50 51 50 49 50 51 51 51 52 52 53 53 53 54 56 56 57 57 57 57 58 59 61 62 62 62 62 63 64 65 65 65 65 65 66 68 67 64 65 67 70 75 78 79 78 77 77 79 82 85 88 88 90 93 93 90 90 90 87 82 80 80 82 83 83 84 86 84 83 84 87 90 91 93
40 40 41 42 43 44 44 45 47 48 49 50 51 51 51 52 51 51 52 52 52 53 53 53 53 54 54 56 56 57 57 57 57 58 59 59 60 61 62 63 62 63 63 64 64 64 64 63 64 66 64 61 62 65 68 72 75 75 73 72 72 75 79 82 85 88 91 94 93 91 90 88 85 83 81 80 81 83 82 82 83 81 80 81 84 85 86 88
43 43 44 45 46 47 48 49 50 50 50 51 52 52 52 53 53 53 54 53 54 54 54 54 55 55 56 56 57 58 58 58 58 59 59 59 60 61 62 62 62 63 63 63 63 64 63 62 63 66 64 58 59 65 69 70 73 73 68 66 68 73 78 81 84 86 89 91 91 92 91 86 82 82 82 79 78 80 82 81 79 79 79 79 80 82 82 84
46 47 47 48 48 50 51 51 52 53 52 52 53 53 54 54 55 55 56 56 56 56 56 56 56 57 57 58 58 58 58 58 60 60 60 60 61 61 61 62 61 62 62 62 62 63 63 61 62 66 65 57 58 66 70 71 73 69 62 63 70 76 79 80 82 83 85 87 88 89 89 84 79 79 79 76 74 76 79 79 77 77 78 79 79 79 79 80
48 50 50 51 51 52 53 53 54 55 55 55 55 55 56 56 56 57 58 58 58 58 58 58 58 58 59 59 59 58 59 59 60 61 61 61 61 61 60 60 60 60 61 62 62 61 63 62 62 66 66 58 58 67 72 73 70 62 59 67 75 78 78 79 80 81 82 83 84 84 84 81 77 75 74 72 70 71 73 75 75 74 75 78 79 77 76 77
Wind_Direction
248 248 248 249 249 250 250 251 252 253 253 254 254 254 254 255 255 255 256 256 256 256 256 256 256 256 256 256 256 255 255 255 255 255 255 256 256 256 256 257 257 257 258 258 258 259 259 259 260 260 260 260 260 260 260 261 261 261 261 262 262 262 263 264 265 265 266 267 266 267 268 268 268 269 269 270 270 270 270 271 271 271 272 272 272 273 273 274
246 247 248 248 249 250 250 251 252 253 253 254 254 255 255 256 256 257 257 257 257 258 258 258 258 257 257 257 256 256 256 256 255 255 255 255 256 256 256 256 256 257 257 257 258 258 258 258 259 259 259 259 259 259 259 260 260 260 261 261 261 262 263 264 264 264 265 266 266 267 267 267 268 268 268 269 269 270 270 270 270 271 271 272 272 272 273 274
245 246 247 248 248 249 250 251 252 253 253 254 255 255 256 257 257 258 258 259 259 259 259 259 259 259 258 258 257 257 256 256 256 255 255 255 255 255 255 255 255 256 256 256 256 257 257 257 257 257 257 258 258 258 258 259 259 260 260 260 261 262 263 263 263 264 265 265 265 265 266 266 267 267 267 268 268 268 268 269 270 270 270 270 271 272 273 273
245 246 247 248 249 249 250 251 252 253 254 255 255 256 257 258 259 259 260 261 261 261 261 261 261 260 260 259 259 258 257 257 256 256 255 255 254 254 254 254 254 254 255 255 255 255 255 255 256 256 256 256 257 257 258 258 259 259 259 260 261 262 261 261 262 263 264 264 264 264 265 265 266 266 266 267 267 267 269 270 269 269 269 270 271 271 272 273
248 249 250 250 251 251 252 253 254 255 256 256 257 258 258 259 260 261 262 262 263 263 263 263 262 262 261 261 260 259 258 257 256 255 255 254 254 253 253 253 253 253 253 253 253 253 254 254 254 255 255 255 256 256 257 257 258 258 259 259 260 260 260 261 262 262 262 263 263 263 264 264 265 265 265 266 266 267 269 267 267 268 269 270 270 271 271 271
251 252 253 253 254 254 255 256 257 258 258 258 258 259 259 260 261 262 263 263 264 264 264 264 264 263 262 261 260 259 258 257 256 255 254 253 252 252 252 252 251 251 251 251 252 252 252 252 253 253 254 254 255 255 256 256 257 257 258 259 259 259 260 260 260 261 261 261 262 262 263 263 263 264 265 265 266 267 266 266 267 268 268 269 270 270 270 270
254 254 255 255 256 257 257 258 258 259 259 259 259 259 260 260 261 262 263 264 265 266 265 265 264 263 263 261 260 259 257 256 255 254 253 252 251 251 250 250 250 250 250 250 250 251 251 251 252 252 253 253 254 255 255 256 256 257 257 258 258 259 259 259 259 260 260 260 261 261 261 262 262 263 263 264 265 265 264 265 267 267 267 268 268 268 269 269
254 255 256 255 256 257 258 259 259 259 259 258 258 259 259 259 260 261 262 264 265 266 266 266 265 264 263 262 260 258 257 255 254 253 252 251 250 250 249 249 249 249 249 249 250 250 250 251 251 252 252 253 254 254 255 255 256 256 257 257 257 258 258 258 258 259 259 260 260 260 260 261 261 261 261 262 264 263 264 265 265 265 266 266 266 267 267 267
255 256 256 256 257 258 259 259 259 259 258 257 257 257 258 258 259 260 262 263 265 267 268 267 267 266 264 263 261 259 257 255 254 253 252 251 250 249 249 248 248 248 248 248 249 249 249 250 251 251 252 252 253 254 254 255 255 256 256 256 256 256 256 256 257 257 258 258 258 258 259 259 259 259 260 261 262 262 262 263 263 264 264 264 265 265 265 265
255 256 257 257 258 258 258 258 258 258 258 257 257 257 257 258 259 260 261 262 264 267 269 269 269 268 267 265 263 260 259 257 255 254 253 252 251 250 249 248 248 247 247 247 248 248 248 249 249 250 250 251 252 252 253 254 254 254 254 254 254 254 254 254 255 255 255 256 256 256 257 257 258 258 258 260 260 260 260 261 262 262 262 263 263 263 263 263
256 257 257 258 259 259 258 257 257 257 258 258 257 257 257 258 258 259 260 261 263 265 268 270 271 271 269 268 265 263 262 260 257 256 254 253 252 251 250 249 248 247 247 246 246 247 247 247 247 248 249 249 249 250 251 252 251 251 251 252 252 252 252 252 252 253 253 254 255 255 255 256 257 257 257 259 258 258 260 260 260 261 261 261 261 261 261 261
256 257 258 258 259 259 258 258 257 256 257 257 257 257 257 257 257 258 259 260 261 263 266 268 271 272 271 271 269 268 266 265 262 259 257 254 253 251 249 248 247 247 246 246 246 246 246 246 247 247 247 248 249 249 249 249 249 249 249 250 250 251 250 250 251 252 252 253 254 254 255 255 256 256 257 257 258 259 259 259 260 260 260 259 259 259 259 258
257 257 258 258 258 258 258 258 257 256 256 256 256 256 256 256 257 257 258 258 259 260 262 264 267 269 270 271 271 270 270 270 268 266 262 258 255 253 251 249 248 247 246 246 246 246 247 247 247 247 247 248 248 248 249 249 249 249 249 249 249 250 249 250 251 252 252 253 254 254 254 255 255 256 257 257 258 259 259 259 259 259 258 257 257 256 256 256
257 257 257 258 258 258 258 257 257 255 255 255 255 255 256 256 256 257 258 258 258 258 259 260 262 264 266 267 268 268 267 268 268 268 267 265 261 257 254 251 250 249 248 248 248 247 248 248 248 248 249 249 248 249 250 249 250 249 250 250 250 251 250 251 252 252 251 252 253 253 254 254 254 256 257 256 257 258 258 258 258 257 257 255 255 255 254 254
259 258 258 257 257 257 257 256 256 255 254 254 254 254 255 255 256 257 257 258 258 258 258 259 259 260 262 263 264 263 261 260 260 261 262 262 262 261 258 254 251 250 250 250 250 249 250 250 250 250 250 250 249 250 250 250 251 250 251 251 251 252 251 250 251 251 250 251 252 252 252 253 254 255 256 254 255 256 256 256 256 256 255 254 254 254 253 253
261 260 260 258 257 257 256 256 255 254 254 253 253 252 253 253 254 255 256 256 257 257 258 258 258 257 258 259 259 259 257 255 255 254 254 254 254 254 255 255 253 251 249 248 248 248 249 251 252 253 254 254 253 253 252 252 252 251 252 253 252 253 251 247 249 251 250 250 251 251 251 253 253 250 252 253 251 253 254 254 255 254 254 254 253 254 254 253
262 262 262 260 259 257 256 255 254 253 252 252 252 251 251 251 252 252 253 254 254 255 255 256 255 255 255 255 255 255 253 252 252 252 251 251 250 249 249 249 249 250 249 248 248 247 247 248 248 249 250 251 253 253 253 252 252 252 253 253 251 252 252 246 246 252 252 249 250 251 250 252 252 244 246 251 250 250 252 252 253 253 253 254 254 255 255 253
264 263 263 263 261 259 257 255 254 253 252 251 251 250 250 250 250 251 251 252 252 253 253 254 254 253 252 252 252 252 251 251 251 250 250 250 250 250 249 247 247 247 247 247 247 247 247 247 247 246 244 243 245 246 246 247 247 248 249 249 248 248 251 248 244 250 253 249 247 249 249 250 250 242 241 249 250 248 251 251 251 252 253 254 255 255 254 254
264 264 264 263 263 261 260 258 256 254 252 251 250 250 249 249 250 250 250 251 251 252 252 253 253 252 251 251 251 250 250 249 249 249 248 248 249 249 249 249 249 248 247 247 246 245 244 244 245 246 246 245 246 245 245 246 246 245 245 247 247 246 249 249 243 245 251 251 247 247 248 248 248 241 237 246 251 249 251 251 250 251 253 254 255 255 255 255
264 264 264 263 263 263 262 261 260 258 256 254 252 250 250 249 249 249 250 250 250 251 251 252 253 252 252 252 251 251 251 250 249 249 248 247 246 247 248 248 250 250 250 249 248 246 245 244 244 244 246 246 247 248 248 249 248 247 247 247 248 247 248 248 244 244 249 251 249 246 245 247 247 241 236 243 251 252 252 253 252 252 254 255 255 256 257 256
263 263 263 263 264 264 263 263 263 261 260 257 255 253 251 250 250 250 250 250 250 251 251 252 252 252 252 252 252 251 251 251 250 250 249 248 246 246 246 246 247 248 250 250 249 248 247 245 245 245 245 244 246 247 247 247 248 247 247 247 249 248 248 248 244 245 248 249 249 247 245 246 247 245 239 241 249 254 255 253 253 254 254 256 257 257 257 256
262 263 263 263 263 263 264 263 263 263 262 261 259 257 254 253 252 252 251 251 251 251 250 251 251 251 252 252 252 252 252 251 251 250 250 249 248 247 247 246 246 246 248 249 248 249 249 247 246 246 246 246 246 248 246 246 246 247 247 247 250 249 250 250 244 246 250 249 249 248 247 248 248 248 245 243 247 253 256 255 253 255 255 256 256 256 256 256
261 262 263 263 263 263 263 263 263 263 262 262 261 260 258 256 255 254 253 253 253 252 252 251 251 252 252 252 253 253 252 252 252 251 251 251 250 250 249 248 248 247 247 248 248 249 249 249 248 248 248 247 248 249 248 248 247 247 247 248 249 248 250 251 245 247 250 250 251 249 248 250 250 250 249 248 247 249 255 256 255 254 255 256 256 256 256 255
261 262 262 263 263 263 264 263 263 263 263 262 262 261 260 259 258 256 256 255 255 254 254 253 253 253 253 253 253 253 253 253 252 253 253 252 252 252 251 251 250 249 249 249 249 248 248 249 250 249 249 249 249 249 250 250 249 249 249 249 249 248 250 251 246 249 251 249 251 249 248 251 251 251 250 249 250 250 252 255 256 255 255 255 256 257 257 257
261 261 262 263 263 263 263 264 264 264 264 263 263 262 261 261 260 259 259 258 257 256 255 255 255 255 255 254 254 254 254 254 254 254 254 254 253 253 253 252 252 252 251 252 251 250 249 249 250 250 250 251 250 250 251 252 252 251 250 252 252 249 250 251 247 249 251 250 250 250 249 250 250 252 251 250 251 251 252 253 254 255 255 256 256 257 257 257
261 261 262 262 263 263 263 263 263 263 263 263 263 263 262 262 261 261 261 260 259 259 258 258 258 257 257 257 256 256 256 256 256 256 256 256 255 255 254 254 254 253 252 252 252 252 251 250 251 250 250 251 251 251 251 252 253 251 250 252 254 252 251 253 250 249 250 250 250 250 251 250 249 251 252 252 253 253 253 254 254 255 256 257 257 257 258 257
261 261 262 263 263 264 264 264 264 263 263 263 262 262 262 262 262 261 260 260 260 260 260 260 260 259 259 259 258 258 258 257 257 257 257 257 257 256 256 255 255 254 253 253 253 253 252 250 251 251 250 251 251 251 251 252 253 252 251 251 253 253 253 253 253 251 251 250 251 252 253 253 251 252 252 253 255 254 254 254 254 255 256 257 257 258 258 258
262 262 263 264 265 265 266 266 266 266 265 264 263 263 262 262 262 261 260 259 259 260 260 260 260 260 260 260 260 260 260 259 259 258 258 258 258 258 257 257 257 257 256 255 255 255 255 253 252 252 251 251 251 251 251 251 252 252 252 252 253 254 254 253 254 254 253 252 252 252 253 255 254 253 253 253 255 256 255 255 255 255 256 257 257 257 258 258
263 264 265 266 266 267 267 267 267 267 267 266 266 265 264 263 263 262 261 260 260 260 260 259 260 260 259 260 260 260 260 260 260 259 259 259 258 258 258 258 258 258 257 257 257 257 257 256 255 254 253 252 252 252 251 251 252 252 252 252 253 253 254 254 254 254 253 253 254 253 253 255 256 255 253 252 255 256 256 255 255 256 256 257 257 258 258 259
265 266 267 267 268 268 268 268 268 268 268 267 267 267 266 266 265 263 263 262 261 261 260 260 259 259 260 260 260 260 260 260 260 260 259 259 259 259 259 259 259 258 258 258 258 258 258 257 256 256 255 255 254 254 254 253 253 253 253 253 253 253 253 253 253 253 253 253 254 253 252 254 256 256 254 252 253 256 257 256 256 257 258 258 258 258 259 259
268 268 268 269 269 269 269 269 269 269 268 268 268 267 267 267 266 265 265 264 263 262 262 261 260 260 260 260 261 261 260 260 259 259 259 259 260 260 260 259 259 259 259 258 258 258 258 258 257 257 256 256 256 255 255 255 254 254 254 254 254 254 254 253 253 253 253 253 253 253 252 252 253 255 256 254 253 256 258 258 257 257 258 258 258 258 259 259
269 270 270 270 270 270 270 270 270 270 270 269 269 268 268 267 267 267 266 266 265 265 264 264 263 262 261 261 262 261 261 260 260 259 259 260 260 260 259 259 259 259 259 259 259 259 259 259 259 258 257 256 256 256 256 256 256 256 255 255 255 255 255 254 254 254 253 252 252 252 252 251 252 255 256 255 254 255 258 258 258 257 257 258 258 258 258 259
270 271 271 271 271 271 270 270 270 270 269 269 269 269 268 267 267 267 267 267 266 266 266 265 265 264 263 263 263 262 262 262 261 260 260 260 260 260 260 259 258 259 259 259 259 259 260 260 259 258 258 257 257 257 257 257 257 257 257 257 256 256 256 255 254 254 254 253 252 252 252 253 254 255 256 256 255 255 256 258 258 257 257 257 258 258 258 259
271 271 271 271 271 271 271 271 270 270 269 269 269 268 268 267 267 267 267 268 267 267 267 266 266 266 265 264 264 264 263 263 263 262 262 261 261 261 260 260 259 259 260 260 261 260 260 260 259 258 258 257 257 257 257 257 258 258 257 256 256 257 257 255 254 254 254 254 254 254 255 255 254 255 257 258 258 256 256 257 258 258 257 257 258 258 259 259
272 272 273 272 272 272 272 271 271 271 270 270 270 269 268 268 267 267 267 267 267 267 267 266 266 266 266 265 265 264 264 264 264 264 263 263 263 262 261 261 260 260 260 260 261 260 260 260 260 259 258 257 256 256 256 257 258 258 257 257 256 256 257 256 256 256 256 256 256 256 256 256 255 255 256 257 258 258 257 257 257 258 258 258 258 258 259 259
274 274 274 274 273 273 272 272 272 272 272 271 271 270 270 269 269 269 268 268 268 268 268 268 268 267 267 267 266 266 265 265 265 265 265 263 263 263 262 263 263 262 261 261 261 261 260 260 260 260 260 259 258 257 257 257 257 257 257 257 257 256 257 257 257 257 257 257 257 256 256 256 256 257 257 257 256 257 257 257 256 257 257 257 258 258 259 259
275 275 275 275 274 274 274 273 273 273 273 272 272 271 271 271 270 270 270 270 270 270 270 270 269 269 269 268 268 268 267 266 265 265 266 264 264 264 264 264 264 263 263 262 262 261 261 261 261 261 260 261 260 259 259 258 257 258 258 258 257 257 257 258 258 257 257 257 257 257 257 256 255 257 258 258 257 257 257 257 257 257 257 257 257 258 258 259
276 276 276 276 275 275 275 274 274 274 273 273 273 273 273 273 272 272 272 272 272 271 271 271 270 270 270 269 269 269 269 269 267 266 266 265 265 265 265 264 264 264 264 263 263 262 261 261 262 262 262 261 261 261 260 259 258 259 259 258 258 258 258 258 258 257 257 257 257 257 257 256 255 255 256 258 258 257 257 258 258 258 257 257 258 258 258 259
276 276 276 275 275 275 274 274 274 273 272 272 273 274 275 275 275 275 274 274 274 273 273 273 272 272 272 272 271 270 270 271 271 269 268 268 267 267 267 266 265 265 264 264 263 263 262 261 262 263 263 263 263 262 262 261 260 259 259 259 259 260 259 259 259 258 258 258 257 256 256 256 256 256 255 256 258 258 257 257 258 258 258 258 258 258 258 259
275 275 274 274 274 275 275 275 275 274 274 274 273 274 275 276 276 277 276 276 275 275 275 275 275 274 274 274 273 273 272 272 272 271 270 270 270 269 269 269 268 267 266 265 264 264 263 262 262 263 263 263 264 264 263 262 262 261 260 260 260 260 260 259 259 260 260 259 258 257 256 255 256 256 256 255 257 258 258 257 257 258 259 258 258 258 257 257
276 276 275 275 276 277 277 277 277 277 277 277 277 277 277 278 278 279 280 279 279 279 279 278 278 278 277 277 277 276 276 275 274 274 272 272 271 270 270 270 270 268 267 266 266 266 265 264 263 262 263 263 263 263 263 263 263 263 262 262 261 260 260 260 259 260 261 260 260 259 258 256 256 256 257 256 256 257 259 259 258 257 257 258 258 258 257 257
277 277 278 278 279 278 278 278 278 278 278 278 278 278 278 278 279 279 279 280 280 280 280 279 279 279 278 279 278 278 278 277 277 276 276 275 273 272 272 271 271 270 269 267 267 267 267 267 265 263 263 263 263 263 263 263 263 263 262 262 262 261 261 261 261 260 260 261 262 262 261 258 257 257 257 257 256 256 257 258 259 258 258 258 258 257 257 257
278 278 279 279 279 278 278 277 277 278 277 276 276 276 276 277 277 278 278 279 279 279 279 279 279 279 279 279 279 279 278 278 278 278 277 276 275 274 273 272 272 271 271 269 268 268 267 267 266 264 264 264 264 264 264 264 264 263 263 262 262 263 263 263 263 262 261 261 262 262 261 260 258 258 257 257 257 256 256 257 258 259 259 259 258 258 258 257
278 278 278 278 277 277 277 277 276 276 276 277 277 277 277 278 278 279 279 280 281 280 280 280 280 279 279 279 279 280 280 279 279 279 279 278 277 276 275 273 272 271 271 271 271 270 269 268 267 266 264 263 264 264 264 264 264 264 264 264 264 265 265 265 264 264 263 262 262 262 261 259 258 258 257 258 258 258 257 258 258 259 259 259 259 258 258 258
278 278 278 278 278 278 278 278 277 277 277 279 280 280 281 282 282 283 283 282 282 282 281 281 280 280 280 280 280 280 281 281 280 280 279 279 278 277 276 275 274 273 271 271 271 270 270 269 269 268 267 265 265 264 264 263 263 263 264 264 265 265 266 266 266 265 265 265 264 263 262 260 259 258 258 258 259 259 258 258 258 259 259 260 260 259 259 259
281 281 281 281 281 281 282 281 281 281 281 281 282 283 284 284 285 285 285 284 283 283 282 281 281 280 280 280 281 281 282 282 281 281 280 280 279 279 278 277 276 275 274 272 271 270 270 269 269 269 268 267 266 265 265 265 264 264 264 264 265 266 266 267 266 266 267 267 265 265 265 263 261 260 260 259 259 259 259 259 258 258 259 260 261 261 260 259
283 283 283 283 282 282 283 283 283 283 283 284 284 284 285 286 286 285 285 285 284 284 283 282 281 281 281 282 282 283 283 283 283 283 282 282 281 281 281 279 278 277 276 274 272 271 270 270 269 269 268 267 267 266 266 266 266 266 266 266 266 267 267 267 267 268 268 267 265 265 266 265 264 262 262 262 262 261 260 260 258 257 257 258 259 260 260 260
284 284 284 283 283 282 281 282 282 283 283 284 284 285 285 286 286 286 285 285 285 285 284 284 283 283 283 283 284 284 284 285 285 285 284 284 284 284 283 282 279 277 276 275 275 273 272 271 270 269 268 268 267 267 266 266 266 266 266 266 266 267 267 267 268 268 268 267 266 265 265 265 265 265 263 263 263 262 260 259 258 257 256 257 257 258 259 260
284 284 284 283 283 282 282 282 282 282 283 284 284 285 285 285 286 286 285 285 285 285 285 285 285 285 285 285 285 286 286 286 287 286 286 286 287 286 285 283 281 280 278 277 277 276 274 274 272 271 270 270 269 269 267 266 266 265 265 266 266 266 266 266 266 266 266 266 267 266 266 265 266 266 265 263 263 262 261 260 260 259 258 257 258 258 258 259
284 283 283 283 283 283 283 283 283 283 283 284 284 285 285 286 286 286 286 286 286 286 286 286 286 286 286 286 286 287 287 288 288 287 288 289 289 287 286 285 283 281 280 280 279 277 277 276 275 274 272 271 271 270 268 267 267 266 266 268 269 267 265 263 263 263 264 265 266 267 267 267 267 266 265 264 263 263 263 262 262 261 260 259 258 258 258 259
283 282 282 282 283 283 283 284 284 285 285 285 285 286 286 286 287 287 287 287 287 286 286 286 286 287 287 287 287 288 288 288 288 289 290 290 289 288 288 286 284 283 282 281 280 280 279 278 276 275 273 272 271 270 268 267 267 268 271 272 270 266 264 263 263 264 264 265 266 267 268 269 268 267 266 264 262 261 261 261 260 260 260 259 257 257 257 258
282 282 283 283 284 284 284 284 285 286 286 286 286 286 286 287 287 287 288 288 288 287 287 287 287 288 288 288 288 289 288 288 289 290 290 290 289 289 287 285 284 283 282 281 281 281 280 278 277 275 274 272 270 269 269 268 269 272 274 270 267 267 267 267 267 268 268 268 268 269 269 269 269 267 266 264 261 259 258 258 258 257 256 256 256 255 255 256
Height
10650 10652 10653 10655 10657 10658 10660 10661 10662 10664 10666 10667 10669 10670 10671 10672 10673 10673 10674 10675 10676 10678 10679 10680 10682 10683 10684 10685 10687 10688 10690 10692 10694 10696 10698 10699 10702 10704 10705 10706 10708 10710 10713 10714 10717 10719 10722 10724 10726 10728 10729 10730 10730 10731 10732 10734 10735 10736 10737 10738 10739 10738 10736 10741 10746 10742 10741 10750 10750 10745 10750 10750 10750 10752 10751 10753 10754 10756 10756 10757 10758 10757 10758 10758 10759 10760 10759 10761
10647 10648 10650 10651 10653 10654 10655 10657 10658 10659 10660 10662 10663 10664 10665 10665 10666 10667 10668 10668 10669 10671 10672 10673 10674 10675 10676 10677 10678 10680 10681 10683 10685 10687 10689 10690 10692 10694 10695 10696 10698 10701 10703 10705 10707 10710 10712 10713 10715 10717 10718 10719 10720 10721 10722 10723 10725 10726 10728 10730 10729 10727 10731 10737 10737 10732 10734 10740 10739 10739 10741 10740 10742 10743 10743 10744 10745 10747 10746 10748 10749 10750 10751 10750 10750 10751 10752 10753
10644 10645 10647 10648 10649 10651 10652 10653 10654 10655 10656 10657 10658 10659 10659 10660 10660 10661 10661 10662 10663 10664 10665 10665 10666 10667 10667 10668 10669 10671 10673 10674 10676 10678 10680 10681 10683 10684 10685 10687 10689 10692 10693 10696 10698 10700 10702 10703 10705 10706 10708 10709 10709 10711 10713 10714 10716 10717 10719 10719 10718 10722 10728 10728 10725 10725 10728 10730 10730 10730 10731 10732 10733 10733 10733 10735 10737 10735 10736 10740 10741 10742 10742 10740 10742 10743 10744 10745
10642 10643 10644 10645 10646 10647 10649 10650 10651 10652 10652 10653 10653 10654 10654 10655 10655 10655 10656 10656 10657 10657 10658 10658 10659 10659 10659 10660 10661 10663 10664 10666 10667 10669 10670 10672 10673 10674 10676 10678 10680 10682 10684 10686 10688 10690 10691 10693 10695 10696 10698 10699 10700 10702 10703 10706 10707 10709 10709 10710 10713 10717 10718 10715 10717 10719 10719 10721 10721 10721 10722 10724 10725 10724 10725 10727 10726 10725 10730 10735 10731 10731 10732 10732 10735 10735 10736 10737
10640 10641 10641 10642 10643 10644 10646 10647 10647 10648 10649 10649 10650 10650 10650 10650 10651 10651 10651 10651 10651 10652 10652 10652 10652 10652 10653 10653 10654 10655 10656 10658 10659 10660 10661 10663 10664 10665 10667 10669 10671 10673 10675 10677 10679 10680 10682 10684 10685 10687 10689 10690 10691 10693 10695 10697 10699 10700 10700 10703 10707 10707 10707 10709 10710 10710 10710 10712 10713 10713 10714 10716 10716 10714 10717 10717 10716 10719 10725 10724 10720 10723 10725 10725 10726 10727 10728 10729
10637 10638 10639 10640 10640 10641 10642 10643 10644 10645 10645 10646 10646 10646 10646 10646 10646 10646 10646 10646 10646 10646 10647 10646 10646 10646 10647 10647 10648 10648 10649 10650 10651 10652 10653 10654 10656 10657 10659 10661 10662 10664 10666 10668 10669 10671 10673 10675 10677 10678 10680 10681 10683 10685 10687 10688 10690 10691 10693 10696 10697 10697 10700 10702 10700 10701 10702 10704 10704 10706 10707 10708 10706 10707 10710 10708 10708 10715 10714 10711 10713 10717 10718 10716 10718 10720 10720 10721
10635 10635 10636 10637 10638 10638 10639 10640 10641 10642 10642 10642 10642 10642 10642 10642 10642 10642 10642 10642 10642 10642 10642 10641 10641 10641 10641 10642 10642 10642 10643 10643 10644 10645 10645 10646 10648 10649 10651 10653 10654 10656 10658 10660 10662 10663 10666 10667 10669 10670 10671 10673 10675 10677 10678 10680 10682 10683 10686 10688 10689 10690 10693 10692 10691 10694 10694 10695 10697 10698 10698 10699 10699 10701 10702 10699 10703 10707 10703 10704 10707 10709 10710 10709 10710 10711 10712 10714
10632 10632 10633 10634 10634 10635 10636 10637 10638 10638 10638 10638 10638 10638 10638 10638 10638 10638 10638 10638 10638 10638 10638 10637 10637 10637 10637 10637 10637 10637 10637 10637 10638 10638 10639 10640 10641 10642 10644 10646 10647 10649 10651 10653 10654 10656 10658 10660 10661 10663 10664 10666 10667 10669 10670 10672 10674 10676 10679 10681 10681 10683 10685 10684 10685 10686 10686 10688 10690 10689 10690 10692 10693 10694 10693 10694 10698 10697 10696 10699 10700 10701 10702 10701 10702 10704 10705 10706
10629 10629 10630 10631 10631 10632 10633 10633 10634 10634 10634 10635 10635 10635 10635 10635 10635 10635 10635 10635 10635 10635 10634 10633 10633 10633 10633 10632 10632 10632 10632 10632 10632 10633 10634 10634 10636 10637 10639 10640 10642 10643 10644 10646 10647 10649 10651 10653 10654 10656 10657 10658 10660 10662 10662 10665 10668 10670 10673 10672 10673 10676 10677 10677 10678 10679 10679 10681 10682 10681 10684 10684 10685 10687 10686 10689 10692 10689 10690 10692 10692 10695 10695 10695 10696 10697 10698 10699
10626 10626 10627 10627 10628 10629 10629 10630 10630 10630 10631 10631 10631 10631 10631 10632 10632 10632 10632 10632 10632 10632 10631 10630 10630 10630 10629 10629 10629 10628 10628 10628 10628 10629 10629 10630 10631 10633 10634 10635 10636 10638 10639 10640 10641 10643 10645 10646 10648 10649 10651 10652 10654 10656 10656 10659 10662 10663 10665 10665 10667 10669 10670 10670 10672 10673 10672 10674 10674 10674 10677 10677 10679 10679 10680 10686 10685 10681 10683 10685 10686 10688 10688 10690 10690 10691 10692 10693
10622 10623 10623 10624 10624 10625 10625 10626 10627 10627 10627 10627 10628 10628 10628 10628 10629 10629 10629 10630 10630 10629 10628 10628 10627 10627 10627 10626 10626 10625 10625 10625 10625 10625 10626 10627 10628 10629 10630 10631 10632 10633 10634 10635 10637 10638 10639 10641 10642 10643 10645 10646 10648 10650 10651 10654 10655 10656 10658 10659 10660 10662 10663 10664 10665 10665 10665 10668 10667 10668 10671 10671 10672 10672 10676 10682 10675 10674 10678 10679 10680 10682 10683 10684 10685 10685 10686 10687
10619 10620 10620 10620 10621 10621 10622 10622 10623 10624 10624 10624 10624 10625 10625 10625 10626 10626 10626 10627 10627 10626 10626 10625 10625 10625 10624 10624 10623 10623 10623 10623 10623 10623 10623 10624 10624 10625 10626 10627 10628 10629 10630 10631 10632 10634 10635 10636 10637 10639 10640 10641 10644 10645 10645 10648 10649 10651 10652 10653 10655 10656 10657 10657 10659 10660 10660 10662 10661 10662 10665 10665 10665 10665 10673 10676 10667 10669 10673 10673 10674 10676 10677 10679 10679 10679 10680 10682
10616 10616 10616 10616 10617 10617 10618 10619 10619 10620 10620 10620 10621 10621 10622 10622 10622 10623 10623 10624 10624 10623 10623 10623 10623 10623 10622 10622 10621 10621 10621 10621 10620 10620 10621 10621 10622 10622 10623 10624 10625 10626 10627 10628 10629 10630 10631 10632 10633 10635 10636 10638 10641 10640 10640 10643 10644 10646 10647 10648 10650 10649 10650 10653 10655 10655 10656 10658 10656 10657 10660 10659 10659 10662 10670 10668 10661 10665 10667 10667 10670 10670 10672 10673 10673 10674 10675 10677
10612 10612 10612 10613 10613 10613 10614 10615 10615 10616 10616 10617 10617 10617 10618 10619 10619 10620 10620 10621 10621 10620 10620 10620 10620 10620 10620 10620 10620 10619 10619 10619 10619 10619 10619 10619 10620 10620 10621 10622 10622 10623 10624 10625 10626 10627 10628 10629 10630 10631 10633 10635 10636 10635 10637 10639 10639 10641 10642 10643 10645 10644 10646 10650 10650 10649 10651 10653 10651 10653 10655 10652 10655 10662 10664 10661 10658 10660 10661 10662 10664 10664 10666 10668 10668 10669 10671 10673
10608 10608 10609 10609 10609 10610 10610 10611 10611 10612 10612 10613 10613 10614 10614 10615 10616 10617 10617 10618 10617 10617 10617 10617 10617 10618 10618 10618 10618 10618 10617 10617 10617 10617 10617 10618 10618 10618 10619 10619 10620 10620 10621 10622 10623 10624 10625 10626 10626 10628 10630 10631 10632 10632 10633 10635 10635 10637 10637 10638 10641 10639 10642 10647 10645 10643 10648 10648 10646 10649 10649 10646 10653 10660 10657 10654 10655 10655 10656 10658 10659 10660 10661 10662 10663 10664 10666 10669
10604 10604 10605 10605 10605 10606 10606 10607 10607 10608 10608 10609 10609 10610 10611 10612 10612 10613 10614 10614 10614 10614 10614 10614 10614 10615 10615 10615 10615 10615 10615 10615 10615 10615 10616 10616 10616 10617 10617 10617 10618 10618 10619 10620 10620 10621 10622 10623 10624 10625 10626 10627 10628 10629 10629 10631 10631 10633 10634 10634 10637 10635 10637 10643 10640 10639 10644 10644 10642 10643 10644 10642 10649 10658 10651 10647 10651 10651 10652 10654 10654 10655 10656 10656 10659 10659 10661 10664
10601 10601 10601 10601 10601 10602 10602 10603 10603 10604 10604 10605 10605 10606 10607 10608 10608 10609 10610 10610 10610 10611 10611 10611 10611 10612 10612 10612 10612 10613 10613 10613 10612 10613 10613 10614 10614 10614 10615 10615 10615 10616 10616 10617 10618 10619 10620 10620 10621 10622 10624 10625 10625 10626 10627 10628 10628 10630 10631 10631 10633 10631 10632 10637 10637 10636 10638 10639 10638 10638 10641 10639 10644 10654 10648 10642 10647 10648 10648 10650 10650 10650 10651 10652 10654 10655 10657 10659
10598 10598 10598 10598 10598 10598 10598 10599 10599 10600 10600 10601 10602 10602 10603 10603 10604 10605 10605 10606 10606 10607 10607 10607 10607 10608 10608 10608 10609 10609 10609 10610 10610 10610 10611 10611 10611 10612 10612 10612 10613 10613 10614 10614 10615 10616 10617 10618 10619 10619 10621 10621 10622 10623 10623 10624 10626 10628 10627 10626 10628 10629 10627 10631 10636 10636 10632 10632 10634 10635 10637 10636 10640 10648 10645 10639 10643 10645 10644 10645 10646 10646 10647 10648 10649 10650 10651 10654
10595 10595 10595 10595 10595 10595 10595 10595 10595 10596 10596 10597 10598 10598 10599 10599 10600 10600 10601 10601 10602 10603 10603 10603 10603 10604 10604 10604 10605 10605 10606 10606 10606 10607 10607 10608 10608 10609 10609 10610 10610 10610 10611 10612 10613 10613 10614 10614 10615 10616 10617 10618 10619 10619 10619 10621 10622 10622 10622 10622 10623 10625 10623 10624 10633 10634 10626 10626 10631 10632 10633 10633 10636 10641 10641 10638 10639 10641 10640 10639 10641 10642 10643 10644 10643 10644 10646 10650
10592 10592 10592 10591 10591 10591 10592 10592 10592 10592 10593 10593 10594 10594 10594 10595 10596 10596 10597 10597 10598 10599 10599 10599 10599 10600 10600 10601 10601 10602 10602 10602 10603 10603 10603 10604 10605 10605 10606 10606 10607 10607 10608 10609 10609 10609 10610 10610 10611 10612 10614 10615 10614 10613 10616 10618 10618 10618 10618 10618 10618 10620 10619 10621 10630 10628 10621 10623 10627 10628 10629 10630 10631 10634 10637 10637 10636 10636 10634 10634 10636 10638 10638 10638 10638 10640 10642 10645
10589 10589 10589 10589 10588 10588 10588 10589 10589 10589 10589 10589 10590 10590 10590 10591 10591 10592 10592 10593 10594 10594 10595 10595 10595 10596 10596 10597 10597 10597 10598 10598 10599 10599 10599 10599 10600 10601 10602 10602 10603 10603 10604 10605 10605 10605 10606 10606 10606 10609 10610 10610 10609 10610 10612 10613 10613 10613 10613 10613 10614 10615 10615 10619 10624 10621 10618 10620 10621 10623 10626 10625 10625 10628 10632 10633 10633 10631 10627 10628 10632 10633 10633 10633 10634 10635 10637 10639
10586 10586 10586 10586 10586 10586 10586 10586 10586 10586 10586 10586 10586 10586 10587 10587 10587 10587 10588 10589 10589 10590 10591 10590 10590 10591 10592 10593 10593 10593 10593 10594 10594 10594 10595 10595 10595 10597 10597 10597 10598 10599 10600 10599 10600 10601 10601 10601 10603 10605 10605 10605 10606 10606 10607 10607 10607 10607 10607 10609 10608 10609 10612 10613 10617 10616 10614 10615 10616 10619 10621 10620 10620 10623 10626 10628 10628 10626 10622 10624 10627 10627 10628 10628 10628 10629 10631 10634
10583 10583 10583 10583 10583 10583 10583 10583 10583 10583 10583 10583 10583 10583 10583 10583 10583 10583 10584 10584 10585 10586 10586 10586 10586 10587 10588 10589 10589 10588 10589 10589 10590 10590 10590 10590 10591 10592 10592 10593 10593 10595 10595 10594 10596 10596 10595 10597 10600 10600 10600 10601 10602 10601 10602 10602 10602 10602 10603 10604 10603 10606 10608 10606 10611 10612 10608 10610 10611 10614 10616 10613 10614 10618 10621 10622 10622 10621 10619 10619 10622 10622 10622 10622 10622 10624 10626 10629
10580 10580 10580 10580 10580 10580 10580 10580 10580 10580 10580 10580 10580 10579 10579 10579 10579 10579 10580 10581 10581 10582 10582 10582 10582 10583 10584 10585 10584 10584 10584 10585 10585 10586 10586 10586 10587 10587 10588 10588 10588 10589 10590 10590 10591 10589 10591 10594 10595 10594 10596 10597 10597 10597 10597 10596 10597 10598 10599 10599 10598 10602 10602 10600 10607 10606 10602 10606 10606 10608 10610 10607 10609 10614 10614 10616 10616 10616 10616 10615 10616 10617 10617 10617 10617 10619 10621 10623
10576 10576 10577 10577 10577 10577 10577 10577 10577 10577 10577 10577 10577 10576 10576 10576 10576 10576 10576 10577 10577 10577 10578 10578 10578 10579 10579 10580 10580 10579 10580 10580 10581 10581 10581 10582 10582 10582 10583 10583 10583 10584 10585 10586 10585 10584 10588 10591 10588 10589 10591 10591 10591 10592 10592 10592 10592 10592 10594 10594 10593 10597 10597 10596 10601 10600 10597 10601 10601 10603 10603 10601 10606 10608 10606 10610 10610 10610 10611 10611 10611 10611 10611 10612 10613 10614 10615 10617
10573 10573 10573 10573 10573 10573 10573 10573 10573 10573 10573 10573 10573 10573 10573 10572 10572 10572 10573 10573 10572 10573 10574 10574 10574 10574 10575 10575 10574 10575 10575 10575 10576 10576 10576 10577 10577 10577 10577 10578 10578 10579 10580 10579 10578 10579 10583 10585 10583 10584 10586 10585 10586 10586 10587 10587 10585 10586 10590 10589 10587 10591 10592 10591 10594 10594 10593 10595 10596 10597 10596 10597 10602 10600 10599 10605 10604 10604 10606 10606 10606 10606 10607 10607 10607 10608 10610 10611
10570 10569 10569 10569 10569 10569 10569 10569 10569 10569 10569 10569 10569 10569 10569 10568 10568 10569 10569 10568 10567 10568 10569 10569 10570 10569 10570 10570 10569 10570 10570 10570 10571 10571 10571 10571 10572 10572 10572 10573 10572 10573 10575 10573 10572 10574 10576 10577 10577 10578 10579 10579 10579 10580 10581 10580 10578 10581 10584 10583 10582 10585 10586 10586 10587 10587 10588 10590 10591 10592 10590 10592 10595 10592 10596 10600 10597 10598 10601 10600 10601 10602 10602 10602 10602 10603 10604 10605
10566 10566 10566 10565 10565 10565 10565 10565 10564 10564 10564 10564 10564 10564 10564 10564 10564 10564 10564 10563 10563 10564 10564 10565 10565 10565 10565 10564 10564 10564 10564 10565 10565 10565 10566 10565 10566 10566 10566 10567 10566 10567 10568 10566 10567 10569 10568 10570 10572 10571 10572 10573 10573 10573 10574 10573 10572 10575 10576 10577 10578 10578 10579 10580 10580 10580 10581 10584 10585 10585 10586 10586 10586 10586 10591 10594 10591 10592 10594 10594 10596 10596 10596 10597 10596 10597 10598 10599
10561 10561 10561 10561 10561 10561 10560 10560 10560 10559 10559 10559 10559 10559 10559 10559 10559 10559 10558 10558 10558 10559 10559 10560 10560 10560 10559 10559 10559 10558 10558 10559 10559 10559 10560 10559 10560 10560 10560 10560 10561 10561 10561 10560 10561 10563 10562 10563 10565 10565 10565 10566 10566 10566 10566 10566 10567 10568 10569 10571 10572 10572 10572 10572 10572 10572 10574 10577 10577 10577 10580 10580 10577 10578 10584 10586 10586 10585 10586 10588 10590 10591 10591 10591 10591 10592 10592 10593
10556 10556 10557 10556 10556 10556 10555 10555 10555 10555 10554 10554 10554 10553 10554 10554 10553 10552 10551 10552 10553 10553 10553 10554 10554 10554 10554 10554 10553 10552 10553 10553 10553 10553 10553 10553 10554 10554 10553 10554 10554 10553 10554 10554 10554 10555 10555 10556 10557 10558 10558 10559 10559 10559 10559 10560 10561 10561 10563 10564 10564 10565 10564 10564 10564 10563 10566 10571 10569 10568 10574 10573 10569 10570 10573 10578 10581 10579 10578 10581 10585 10585 10584 10585 10586 10586 10586 10587
10551 10551 10551 10551 10551 10550 10550 10549 10549 10549 10548 10548 10548 10548 10548 10547 10546 10546 10545 10546 10546 10546 10546 10547 10547 10548 10548 10548 10546 10546 10546 10546 10547 10547 10547 10547 10548 10547 10547 10547 10547 10547 10547 10547 10547 10548 10548 10548 10549 10550 10551 10551 10552 10552 10552 10553 10554 10554 10556 10556 10557 10556 10555 10555 10556 10555 10559 10562 10560 10561 10564 10562 10562 10563 10563 10570 10576 10572 10570 10574 10577 10579 10579 10578 10580 10580 10580 10581
10546 10546 10546 10545 10545 10544 10544 10544 10543 10543 10542 10542 10541 10541 10542 10541 10540 10539 10538 10538 10539 10538 10539 10539 10540 10541 10541 10541 10540 10538 10539 10538 10539 10539 10540 10541 10541 10540 10540 10539 10539 10539 10539 10539 10540 10541 10540 10541 10542 10541 10542 10543 10544 10544 10545 10545 10545 10546 10549 10549 10549 10547 10545 10548 10548 10547 10551 10552 10550 10552 10551 10553 10558 10556 10554 10561 10567 10566 10564 10565 10568 10572 10572 10571 10572 10573 10573 10574
10540 10540 10540 10539 10539 10538 10538 10538 10537 10537 10536 10535 10535 10535 10535 10534 10534 10533 10531 10531 10532 10531 10532 10532 10532 10533 10533 10534 10532 10530 10531 10531 10530 10531 10533 10533 10533 10532 10530 10530 10531 10532 10531 10531 10533 10534 10533 10533 10533 10532 10534 10536 10536 10537 10538 10538 10536 10539 10542 10541 10540 10538 10536 10540 10540 10537 10540 10539 10540 10543 10542 10549 10555 10550 10548 10553 10557 10560 10559 10557 10559 10562 10563 10564 10564 10565 10566 10566
10534 10534 10534 10533 10533 10532 10532 10531 10531 10530 10529 10529 10529 10528 10528 10527 10527 10526 10524 10525 10524 10524 10525 10524 10524 10524 10525 10526 10524 10522 10523 10523 10522 10523 10525 10525 10525 10524 10520 10520 10524 10525 10524 10524 10525 10526 10525 10523 10522 10523 10525 10527 10527 10528 10530 10530 10529 10531 10532 10530 10531 10529 10525 10528 10529 10529 10530 10528 10531 10537 10538 10545 10548 10543 10545 10547 10547 10552 10553 10550 10550 10552 10554 10555 10556 10556 10557 10558
10528 10528 10527 10527 10526 10526 10525 10525 10524 10523 10522 10522 10522 10521 10521 10520 10520 10520 10519 10518 10517 10517 10517 10516 10517 10517 10516 10517 10515 10514 10515 10515 10514 10514 10516 10517 10515 10513 10511 10511 10515 10516 10516 10517 10516 10515 10517 10514 10511 10512 10516 10516 10517 10520 10522 10524 10523 10521 10521 10521 10523 10520 10515 10517 10521 10521 10521 10520 10526 10532 10533 10538 10538 10536 10540 10541 10538 10540 10542 10542 10541 10541 10544 10545 10547 10548 10548 10548
10522 10522 10521 10520 10519 10519 10519 10518 10517 10516 10516 10515 10514 10513 10513 10513 10513 10512 10512 10511 10510 10510 10509 10509 10510 10508 10508 10509 10506 10506 10507 10507 10507 10506 10507 10508 10505 10503 10503 10503 10505 10507 10507 10508 10506 10505 10506 10505 10500 10503 10506 10505 10507 10512 10514 10516 10514 10511 10511 10513 10512 10509 10507 10510 10512 10512 10511 10512 10519 10523 10524 10529 10530 10529 10532 10531 10529 10530 10529 10531 10531 10531 10534 10536 10537 10538 10538 10539
10516 10515 10515 10514 10513 10512 10512 10512 10511 10510 10510 10509 10508 10507 10506 10506 10506 10505 10505 10504 10504 10503 10502 10502 10502 10500 10500 10501 10498 10498 10497 10496 10500 10500 10496 10497 10496 10494 10496 10496 10495 10497 10497 10498 10496 10494 10496 10495 10491 10493 10496 10495 10496 10502 10504 10505 10505 10502 10502 10502 10499 10499 10502 10502 10500 10501 10502 10503 10510 10513 10515 10521 10523 10524 10523 10518 10519 10522 10518 10519 10522 10522 10525 10527 10528 10529 10529 10530
10510 10510 10509 10508 10507 10506 10506 10506 10505 10505 10504 10503 10502 10501 10500 10500 10500 10499 10498 10498 10497 10496 10495 10494 10495 10494 10492 10492 10491 10491 10489 10486 10490 10493 10488 10487 10488 10486 10487 10488 10486 10486 10487 10487 10485 10482 10485 10486 10483 10483 10486 10485 10486 10491 10492 10493 10494 10492 10490 10490 10489 10490 10493 10492 10488 10490 10492 10493 10499 10504 10506 10510 10515 10518 10516 10508 10507 10511 10510 10509 10511 10513 10516 10518 10519 10520 10520 10521
10505 10505 10504 10502 10502 10501 10501 10500 10500 10499 10498 10498 10497 10496 10495 10494 10494 10493 10492 10492 10491 10489 10489 10488 10488 10487 10485 10485 10484 10483 10484 10480 10480 10482 10480 10478 10479 10479 10477 10477 10478 10477 10477 10476 10474 10471 10472 10475 10477 10476 10474 10475 10476 10479 10481 10480 10481 10481 10479 10480 10481 10479 10480 10480 10476 10477 10482 10483 10488 10493 10495 10501 10507 10508 10505 10499 10497 10498 10500 10501 10501 10502 10506 10508 10510 10511 10512 10512
10500 10500 10498 10498 10497 10496 10496 10495 10495 10494 10493 10493 10492 10491 10491 10489 10489 10487 10486 10486 10485 10483 10483 10482 10481 10481 10479 10478 10477 10476 10477 10475 10473 10473 10472 10471 10470 10470 10468 10468 10468 10466 10466 10466 10463 10460 10461 10465 10471 10469 10464 10465 10467 10466 10468 10469 10468 10467 10467 10469 10471 10468 10467 10467 10466 10469 10470 10470 10474 10479 10484 10494 10500 10496 10491 10491 10490 10488 10488 10491 10492 10493 10495 10497 10499 10501 10502 10502
10495 10495 10493 10493 10492 10491 10491 10491 10490 10489 10488 10488 10487 10486 10486 10485 10484 10483 10480 10480 10479 10478 10477 10476 10475 10474 10473 10471 10470 10469 10468 10468 10467 10464 10464 10463 10461 10461 10462 10460 10457 10455 10456 10457 10452 10449 10452 10454 10460 10462 10456 10456 10458 10456 10456 10458 10456 10454 10454 10456 10457 10456 10454 10453 10457 10462 10457 10453 10460 10466 10471 10485 10491 10484 10479 10480 10481 10480 10478 10478 10481 10482 10484 10486 10486 10488 10491 10491
10491 10490 10489 10488 10488 10487 10487 10486 10485 10484 10484 10483 10482 10481 10480 10480 10479 10478 10476 10474 10473 10473 10471 10470 10469 10467 10466 10465 10462 10461 10461 10460 10459 10456 10455 10454 10451 10453 10455 10451 10448 10446 10444 10446 10443 10440 10443 10443 10445 10450 10449 10447 10449 10447 10446 10447 10444 10441 10441 10443 10442 10441 10443 10442 10445 10451 10446 10444 10452 10453 10455 10472 10478 10471 10468 10468 10469 10471 10470 10468 10469 10470 10473 10475 10473 10476 10479 10480
10487 10486 10485 10484 10483 10483 10482 10482 10481 10480 10479 10478 10477 10476 10475 10475 10474 10472 10472 10469 10468 10467 10465 10464 10463 10460 10459 10459 10455 10453 10453 10452 10450 10447 10446 10445 10441 10443 10446 10442 10440 10438 10433 10434 10434 10432 10433 10432 10431 10437 10440 10439 10439 10438 10437 10435 10432 10429 10429 10430 10429 10429 10433 10432 10432 10436 10434 10437 10443 10437 10438 10456 10462 10457 10457 10456 10455 10460 10461 10460 10460 10460 10462 10462 10461 10463 10466 10468
10482 10482 10481 10480 10479 10478 10477 10477 10476 10475 10474 10473 10471 10471 10470 10469 10468 10467 10466 10464 10462 10461 10459 10458 10456 10454 10452 10451 10448 10446 10445 10444 10443 10440 10437 10435 10432 10433 10435 10432 10431 10428 10424 10424 10424 10422 10422 10421 10420 10424 10428 10431 10430 10428 10426 10424 10419 10417 10417 10418 10419 10420 10421 10419 10420 10419 10418 10426 10431 10422 10423 10440 10445 10443 10446 10445 10442 10446 10450 10451 10451 10451 10451 10449 10448 10451 10453 10455
10478 10477 10477 10475 10474 10473 10472 10472 10471 10470 10469 10467 10466 10464 10464 10463 10462 10460 10459 10459 10456 10454 10453 10451 10449 10447 10446 10444 10441 10438 10436 10436 10435 10433 10429 10425 10423 10423 10424 10423 10421 10417 10416 10417 10414 10411 10411 10411 10410 10412 10415 10420 10422 10418 10414 10410 10408 10407 10407 10409 10410 10410 10409 10407 10406 10403 10405 10415 10415 10406 10409 10423 10429 10430 10434 10435 10432 10433 10438 10440 10440 10440 10439 10436 10435 10439 10442 10441
10473 10472 10472 10471 10469 10468 10467 10465 10464 10464 10463 10462 10460 10458 10457 10456 10456 10453 10451 10451 10449 10447 10446 10444 10442 10440 10438 10436 10434 10431 10429 10427 10426 10425 10422 10417 10414 10413 10413 10414 10412 10406 10406 10407 10404 10401 10401 10401 10400 10400 10403 10408 10410 10408 10402 10397 10395 10395 10397 10400 10401 10401 10401 10396 10390 10391 10396 10399 10396 10395 10396 10403 10414 10420 10421 10423 10423 10423 10425 10426 10428 10429 10429 10427 10425 10425 10428 10428
10468 10467 10466 10465 10464 10463 10461 10459 10458 10457 10456 10455 10454 10452 10450 10449 10449 10447 10444 10442 10442 10439 10438 10437 10434 10433 10431 10428 10426 10423 10421 10419 10417 10416 10413 10409 10406 10404 10403 10404 10402 10397 10395 10394 10393 10392 10391 10392 10391 10389 10393 10397 10398 10397 10392 10386 10383 10384 10387 10392 10393 10391 10390 10384 10378 10381 10385 10379 10378 10386 10385 10383 10396 10408 10410 10411 10410 10409 10411 10411 10411 10415 10416 10416 10414 10411 10413 10415
10462 10462 10460 10459 10458 10457 10456 10454 10452 10451 10450 10448 10447 10445 10444 10441 10441 10440 10437 10435 10434 10431 10430 10429 10426 10424 10423 10420 10418 10416 10413 10410 10409 10407 10404 10401 10398 10395 10393 10392 10390 10388 10385 10383 10382 10381 10381 10383 10381 10378 10382 10388 10388 10386 10382 10376 10372 10373 10377 10382 10383 10381 10378 10373 10369 10369 10368 10360 10362 10373 10373 10371 10381 10392 10398 10400 10394 10392 10395 10394 10393 10398 10403 10404 10401 10400 10402 10402
10457 10456 10454 10453 10452 10451 10450 10449 10447 10445 10444 10442 10440 10439 10437 10435 10433 10432 10430 10428 10426 10424 10422 10421 10418 10416 10415 10412 10409 10407 10404 10403 10400 10397 10394 10392 10390 10386 10383 10381 10379 10378 10375 10374 10373 10371 10370 10373 10371 10367 10372 10378 10378 10374 10369 10364 10361 10362 10368 10374 10375 10371 10366 10362 10358 10355 10351 10346 10348 10355 10358 10362 10371 10376 10380 10383 10380 10376 10377 10378 10381 10386 10390 10392 10390 10389 10392 10391
10451 10450 10449 10447 10446 10445 10443 10442 10440 10438 10438 10436 10434 10432 10430 10428 10426 10424 10422 10421 10418 10416 10415 10413 10410 10408 10406 10404 10401 10398 10396 10394 10391 10388 10386 10384 10381 10377 10374 10372 10370 10367 10366 10365 10363 10360 10360 10363 10361 10356 10360 10369 10369 10360 10354 10353 10349 10351 10361 10368 10365 10357 10351 10347 10344 10342 10339 10337 10339 10339 10339 10350 10362 10363 10361 10366 10369 10365 10363 10367 10372 10374 10376 10378 10378 10379 10381 10382
10445 10443 10442 10441 10440 10439 10436 10435 10433 10430 10430 10430 10427 10425 10423 10420 10418 10416 10413 10412 10410 10408 10407 10405 10402 10400 10398 10395 10393 10391 10388 10385 10381 10379 10378 10375 10372 10369 10365 10362 10360 10358 10356 10355 10353 10351 10350 10351 10351 10345 10346 10360 10360 10345 10340 10341 10338 10345 10359 10360 10348 10337 10333 10333 10332 10332 10330 10329 10330 10328 10327 10337 10349 10348 10346 10352 10357 10355 10352 10355 10359 10361 10363 10363 10365 10368 10370 10372
10438 10437 10435 10434 10434 10432 10429 10428 10427 10424 10422 10421 10420 10418 10416 10413 10411 10408 10405 10403 10401 10399 10397 10396 10394 10392 10389 10386 10384 10382 10380 10377 10374 10371 10369 10366 10363 10360 10357 10354 10351 10349 10347 10344 10343 10343 10339 10338 10340 10333 10332 10347 10349 10333 10326 10326 10330 10345 10353 10341 10326 10322 10322 10323 10323 10323 10322 10319 10319 10319 10320 10325 10332 10334 10334 10337 10342 10343 10343 10344 10346 10350 10350 10348 10350 10357 10361 10363